User: anonymous
Location: Unspecified
(0.0000°N, 0.0000°E)
Time: 14:08:56
(UTC+02:00)
Language:

Ariane H10 - Orbit

View from above orbital plane
View from above orbital plane
View from above satellite
View from above satellite

Ground track
Ground track

The orbit data is extracted from the following two-line orbital elements,

1 19122U 88040B   14106.64342032  .00000399  00000-0  32565-2 0  9737
2 19122 007.4436 282.8453 7149499 295.8468 351.5273 02.32135951169955
Epoch (UTC): 16 April 2014 15:26:31
Eccentricity: 0.7149499
inclination: 7.4436°
perigee height: 490 km
apogee height: 34941 km
right ascension of ascending node: 282.8453°
argument of perigee: 295.8468°
revolutions per day: 2.32135951
mean anomaly at epoch: 351.5273°
orbit number at epoch: 16995

The dashed part of the orbit path shows where the satellite is in the earth's shadow,  

DLR